Regional Weather Roundup
Issued by NWS

Home | Current Version | Previous Version | Text Only | Print | Product List | Glossary Off
Versions: 1 2 3 4 5 6 7 8 9 10 11 12 13 14 15 16 17 18 19 20 21 22 23 24 25 26 27 28 29 30 31 32 33 34 35 36 37 38 39 40 41 42 43 44 45 46 47 48 49 50

680
ASUS45 KCYS 251210
RWRWY

WYOMING REGIONAL WEATHER ROUNDUP
NATIONAL WEATHER SERVICE CHEYENNE WY
600 AM MDT MON SEP 25 2017

NOTE:  "FAIR" INDICATES FEW OR NO CLOUDS BELOW 12,000 FEET
WITH NO SIGNIFICANT WEATHER AND/OR OBSTRUCTIONS TO VISIBILITY.

WYZ001-251300-
YELLOWSTONE NATIONAL PARK

CITY           SKY/WX    TMP DP  RH WIND       PRES   REMARKS
LK YELLOWSTONE NOT AVBL
W YELLOWSTONE  NOT AVBL

$$
WYZ002>013-054>058-071-098>099-251300-
NORTHERN WYOMING

CITY           SKY/WX    TMP DP  RH WIND       PRES   REMARKS
JACKSON        CLOUDY    34  33  96 CALM      30.11S
CODY           MOCLDY    39  35  86 CALM      30.11S
GREYBULL       LGT RAIN  43  43 100 CALM      30.10R
6HR MIN TEMP:  43; 6HR MAX TEMP:  45; 6HR PCP:  0.08;

WORLAND        CLOUDY    43  42  97 W3        30.10S
6HR MIN TEMP:  43; 6HR MAX TEMP:  43; 6HR PCP:  0.01;

SHERIDAN       LGT RAIN  43  42  97 CALM      30.10S
6HR MIN TEMP:  43; 6HR MAX TEMP:  44; 6HR PCP:  0.04;

BUFFALO        LGT RAIN  40  37  89 S8        30.12R WCI  34
6HR MIN TEMP:  39; 6HR MAX TEMP:  40; 6HR PCP:  0.08;

GILLETTE       CLOUDY    40  50 100 CALM      30.12R
6HR MIN TEMP:  40; 6HR MAX TEMP:  41; 6HR PCP:  0.11;

HULETT         LGT RAIN  39  37  93 CALM      30.13R
NEWCASTLE      DRIZZLE   39  39 100 CALM      30.15R

$$
WYZ014>020-022>026-101>103-251300-
CENTRAL WYOMING

CITY           SKY/WX    TMP DP  RH WIND       PRES   REMARKS
BIG PINEY      CLOUDY    33  33 100 S3        30.11S
6HR MIN TEMP:  32; 6HR MAX TEMP:  33; 6HR PCP:  0.10;

PINEDALE       FLURRIES  32  32 100 CALM      30.12F
DUBOIS         LGT SNOW  32  32 100 CALM      30.10R
LANDER         CLOUDY    37  36  96 E6        30.10S WCI  32
6HR MIN TEMP:  37; 6HR MAX TEMP:  39;

RIVERTON       CLOUDY    38  36  92 S3        30.11S
6HR MIN TEMP:  38; 6HR MAX TEMP:  39; 6HR PCP:  0.02;

CASPER         LGT RAIN  35  34  96 CALM      30.11S
6HR MIN TEMP:  34; 6HR MAX TEMP:  36; 6HR PCP:  0.04;

DOUGLAS        CLOUDY    39  36  89 CALM      30.12S
6HR MIN TEMP:  37; 6HR MAX TEMP:  39; 6HR PCP:  0.02;


$$
WYZ021-027>030-104>119-251300-
SOUTHERN WYOMING

CITY           SKY/WX    TMP DP  RH WIND       PRES   REMARKS
EVANSTON       FOG       33  33 100 SW6       30.13S VSB 1/2 WCI  28
6HR MIN TEMP:  33; 6HR MAX TEMP:  34;

FORT BRIDGER   CLOUDY    35  35 100 W8        30.15R WCI  28
ROCK SPRINGS   CLOUDY    35  33  92 CALM      30.11R
6HR MIN TEMP:  34; 6HR MAX TEMP:  35;

DIXON          CLOUDY    33  32  94 CALM      30.14R
RAWLINS        CLOUDY    34  33  96 CALM      30.10S
6HR MIN TEMP:  32; 6HR MAX TEMP:  35;

SARATOGA       FOG       32  32 100 SE3       30.11S VSB 3/4
LARAMIE        FOG       30  29  96 SW5       30.10S VSB 1/4 WCI  25
6HR MIN TEMP:  27; 6HR MAX TEMP:  33;

CHEYENNE       CLOUDY    38  37  97 NW3       30.12R FOG
6HR MIN TEMP:  38; 6HR MAX TEMP:  40;

TORRINGTON     CLOUDY    42  40  92 NE3       30.10F
6HR MIN TEMP:  40; 6HR MAX TEMP:  45; 6HR PCP:  0.01;

PINE BLUFFS    CLOUDY    39  39 100 MISG      30.11S

$$




USA.gov is the U.S. government's official web portal to all federal, state and local government web resources and services.